EW9119 Weather Reports


Display with metric or nautical units.
time (UTC)temp
F
wind
direction
speed
MPH
gust
MPH
rain 1hr
in
rain 24hr
in
rain mn
in
humidity
%
barometer
mb
20260905130045 79 117 0.0 0.0 0.00 0.02 0.00 30 1010.4
20260905124544 76 117 0.0 0.0 0.00 0.02 0.00 1 1010.5
20260905123036 74 117 0.0 0.0 0.00 0.02 0.00 1 1010.3
20260905121531 72 117 0.0 0.0 0.00 0.02 0.00 1 1010.5
20260905120038 71 117 0.0 0.0 0.00 0.02 0.00 1 1010.4
20260905114523 70 117 0.0 0.0 0.00 0.02 0.00 1 1010.4
20260905113018 70 117 0.0 0.0 0.00 0.02 0.00 1 1010.1
20260905111516 70 117 0.0 0.0 0.00 0.02 0.00 1 1010.0
20260905110017 70 117 0.0 0.0 0.00 0.02 0.00 1 1010.0
20260905104509 70 117 0.0 0.0 0.00 0.02 0.00 1 1009.8
20260905103002 70 117 0.0 0.0 0.00 0.02 0.00 1 1009.7
20260905101557 70 117 0.0 0.0 0.00 0.02 0.00 1 1009.7
20260905100058 70 117 0.0 0.0 0.00 0.02 0.00 1 1009.7
20260905094549 70 117 0.0 0.0 0.00 0.02 0.00 1 1009.6
20260905093053 71 117 0.0 0.0 0.00 0.02 0.00 1 1009.7
20260905091539 71 117 0.0 0.0 0.00 0.02 0.00 1 1009.8
20260905090036 71 117 0.0 0.0 0.00 0.02 0.00 1 1009.8
20260905084533 71 117 0.0 0.0 0.00 0.02 0.00 1 1009.9
20260905083026 71 117 0.0 0.0 0.00 0.02 0.00 1 1009.9
20260905081522 71 117 0.0 0.0 0.00 0.02 0.00 1 1010.0
20260905080027 72 117 0.0 0.0 0.00 0.02 0.00 1 1010.1
20260905074514 72 117 0.0 0.0 0.00 0.02 0.00 1 1010.3
20260905073009 72 117 0.0 0.0 0.00 0.02 0.00 1 1010.4
20260905071505 72 117 0.0 0.0 0.00 0.02 0.00 1 1010.6
20260905064614 72 117 0.0 0.0 0.00 0.02 0.00 1 1011.1
20260905063051 73 117 0.0 0.0 0.00 0.02 0.00 1 1011.1
20260905061547 73 117 0.0 0.0 0.00 0.02 0.00 1 1012.0
20260905060043 73 117 0.0 0.0 0.00 0.02 0.00 1 1011.8
20260905054547 73 117 0.0 0.0 0.00 0.02 0.00 1 1011.9
20260905053037 74 117 0.0 0.0 0.00 0.02 0.00 1 1012.2
20260905051541 74 117 0.0 0.0 0.00 0.02 0.00 1 1012.4
20260905050026 74 117 0.0 0.0 0.00 0.02 0.00 1 1012.3
20260905044521 74 117 0.0 0.0 0.00 0.02 0.00 1 1012.7
20260905043016 74 117 0.0 0.0 0.00 0.02 0.00 1 1012.9
20260905041612 74 117 0.0 0.0 0.00 0.02 0.00 1 1013.0
20260905040015 74 117 0.0 0.0 0.01 0.02 0.00 1 1012.9
20260905034506 75 117 0.0 0.0 0.01 0.02 0.02 1 1012.7
20260905033059 75 113 0.0 0.0 0.01 0.02 0.02 3 1012.5
20260905031556 75 256 0.0 0.0 0.01 0.02 0.02 19 1011.8
20260905024550 75 256 0.0 0.0 0.00 0.01 0.01 26 1011.6
20260905023042 75 256 0.0 0.0 0.00 0.01 0.01 32 1011.3
20260905021541 75 256 0.0 0.0 0.00 0.01 0.01 35 1011.4
20260905020033 76 256 0.0 0.0 0.00 0.01 0.01 39 1011.7
20260905014535 76 256 0.0 0.0 0.00 0.01 0.01 42 1011.5
20260905013025 76 256 0.0 0.0 0.00 0.01 0.01 46 1010.9
20260905011520 76 256 0.0 0.0 0.00 0.01 0.01 47 1010.8
20260905010018 76 172 0.0 0.0 0.00 0.01 0.01 51 1010.6
20260905004512 77 172 0.0 0.0 0.00 0.01 0.01 51 1010.6
20260905003009 77 172 0.0 0.0 0.00 0.01 0.01 54 1010.6
20260905001503 77 172 0.0 0.0 0.00 0.01 0.01 53 1011.0
20260905000105 78 172 0.0 0.0 0.00 0.01 0.01 53 1011.3
20260904234604 78 172 0.0 0.0 0.00 0.01 0.01 58 1011.7
20260904233052 78 169 0.0 3.0 0.00 0.01 0.01 58 1011.7
20260904231545 78 125 0.0 0.0 0.00 0.01 0.01 54 1011.7
20260904230041 79 161 0.0 0.0 0.00 0.01 0.01 53 1011.8
20260904224537 79 153 0.0 1.0 0.01 0.01 0.01 63 1011.7
20260904223043 81 115 0.0 0.0 0.01 0.01 0.01 63 1012.2
20260904221542 82 110 0.0 0.0 0.01 0.01 0.01 69 1011.3
20260904220024 85 163 0.0 0.0 0.01 0.01 0.01 68 1010.8
20260904214521 86 137 0.0 0.0 0.00 0.00 0.00 64 1010.6
20260904213018 87 129 0.0 0.0 0.00 0.00 0.00 61 1010.4
20260904211511 88 171 0.0 0.0 0.00 0.00 0.00 58 1010.3
20260904210007 89 134 0.0 0.0 0.00 0.00 0.00 54 1010.3
20260904204504 93 171 0.0 5.0 0.00 0.00 0.00 50 1010.0
20260904203057 97 28 0.0 0.0 0.00 0.00 0.00 46 1009.9
20260904201555 96 49 0.0 0.0 0.00 0.00 0.00 48 1009.8
20260904200109 96 123 0.0 0.0 0.00 0.00 0.00 46 1010.0
20260904194623 96 51 0.0 0.0 0.00 0.00 0.00 46 1010.4
20260904193043 96 313 0.0 0.0 0.00 0.00 0.00 47 1010.6
20260904191535 96 315 0.0 0.0 0.00 0.00 0.00 47 1011.0
20260904190030 95 317 0.0 1.0 0.00 0.00 0.00 48 1011.2
20260904184525 95 76 0.0 0.0 0.00 0.00 0.00 48 1011.3
20260904183020 96 31 0.0 0.0 0.00 0.00 0.00 45 1011.6
20260904181516 95 107 0.0 1.0 0.00 0.00 0.00 48 1011.8
20260904180012 96 300 0.0 0.0 0.00 0.00 0.00 46 1012.0
20260904174509 98 340 0.0 0.0 0.00 0.00 0.00 43 1012.2
20260904173002 97 300 0.0 0.0 0.00 0.00 0.00 45 1012.4
20260904171559 96 325 0.0 0.0 0.00 0.00 0.00 49 1012.5
20260904170054 97 32 0.0 0.0 0.00 0.00 0.00 46 1012.6
20260904164555 96 296 0.0 0.0 0.00 0.00 0.00 49 1012.7
20260904163046 96 31 0.0 0.0 0.00 0.00 0.00 47 1013.0
20260904161546 95 300 0.0 0.0 0.00 0.00 0.00 49 1013.3
20260904160040 95 221 0.0 0.0 0.00 0.00 0.00 50 1013.4
20260904154533 96 318 0.0 0.0 0.00 0.00 0.00 51 1013.4
20260904153029 94 106 0.0 0.0 0.00 0.00 0.00 51 1013.4
20260904151536 93 284 0.0 0.0 0.00 0.00 0.00 56 1013.5
20260904150020 92 311 0.0 0.0 0.00 0.00 0.00 59 1013.7
20260904144516 91 308 0.0 0.0 0.00 0.00 0.00 60 1013.6
20260904143011 90 314 0.0 0.0 0.00 0.00 0.00 63 1013.6
20260904141506 88 336 0.0 1.0 0.00 0.00 0.00 66 1013.8
20260904140002 88 294 0.0 2.0 0.00 0.00 0.00 65 1013.7
20260904134609 86 291 0.0 0.0 0.00 0.00 0.00 67 1013.8
20260904133108 85 269 0.0 0.0 0.00 0.00 0.00 67 1013.8
20260904131602 83 302 0.0 0.0 0.00 0.00 0.00 65 1014.0